Flag for Bahamas Weather past 2 weeks in Nassau, Bahamas

Now
86 °F

Scattered clouds.


Feels Like: 93 °F
Forecast: N/A
Wind: 12 mph from Southeast

Location: Nassau Airport

Current Time: Jul 5, 2015 at 7:39:57 PM

Latest Report: Jul 5, 2015 at 7:00 PM


Visibility: N/A

Pressure: 30.14 "Hg

Humidity: 66%

Dew point: 73 °F

Location of NassauLocation

Historic Weather in Nassau — Graph

°F

Nassau temperature yesterday

Maximum temperature yesterday: 90 °F (at 2:00 PM)
Minimum temperature yesterday: 81 °F (at 3:00 AM)
Average temperature yesterday: 85 °F

Past Weeks' High & Low Weather Summary

 TemperatureHumidityPressure
High91 °F (Jun 23, 2:00 PM)94% (Jun 22, 5:00 AM)30.19 "Hg (Jun 22, 5:00 AM)
Low72 °F (Jun 26, 5:00 AM)46% (Jun 30, 12:00 PM)30.06 "Hg (Jun 28, 5:00 AM)
Average85 °F72%30.12 "Hg
* Reported Jun 20 6:00 PM — Jul 5 6:00 PM, Nassau, Weather by CustomWeather, © 2015

Note: Actual official high and low records may vary slightly from our data, if they occured in-between our weather recording intervals... More about our weather records

Advertising

Nassau weather history for previous 24 hours

 ConditionsComfort  
Time TempWeatherWind HumidityBarometerVisibility
6:00 PM
Sun, Jul 5
88 °FScattered clouds.12 mph59%30.15 "HgN/A
4:00 PM88 °FScattered clouds.14 mph59%30.16 "HgN/A
3:00 PM88 °FScattered clouds.14 mph55%30.16 "HgN/A
2:00 PM91 °FScattered clouds.12 mph63%30.16 "HgN/A
1:00 PM88 °FPartly sunny.10 mph62%30.18 "HgN/A
11:00 AM88 °FBroken clouds.10 mph70%30.18 "HgN/A
10:00 AM86 °FScattered clouds.9 mph66%30.17 "HgN/A
9:00 AM84 °FScattered clouds.10 mph74%30.17 "HgN/A
7:00 AM82 °FPassing clouds.5 mph74%30.12 "HgN/A
6:00 AM82 °FPassing clouds.6 mph74%30.14 "HgN/A
5:00 AM81 °FPassing clouds.6 mph79%30.13 "HgN/A
3:00 AM82 °FPassing clouds.6 mph74%30.13 "HgN/A
2:00 AM82 °FPassing clouds.No wind74%30.14 "HgN/A
1:00 AM82 °FPassing clouds.N/A79%30.16 "HgN/A
12:00 AM82 °FPassing clouds.5 mph79%30.16 "HgN/A
11:00 PM
Sat, Jul 4
84 °FPassing clouds.5 mph70%30.15 "HgN/A
10:00 PM82 °FPassing clouds.3 mph79%30.14 "HgN/A
9:00 PM84 °FPassing clouds.5 mph70%30.12 "HgN/A
8:00 PM86 °FPassing clouds.9 mph70%30.11 "HgN/A
7:00 PM86 °FPassing clouds.8 mph62%30.09 "HgN/A
Weather by CustomWeather, © 2015

See weather overviewHow to use our weather pages